User: anonymous   Login
Location: Unspecified
(0.0000°N, 0.0000°E)
Time: 06:16:50
(UTC+01:00)
Language:

Cosmos 1703 - Orbit

View from above orbital plane
View from above orbital plane
View from above satellite
View from above satellite

Ground track
Ground track

The orbit data is extracted from the following two-line orbital elements,

1 16262U 85108A   15085.77900612  .00003377  00000-0  21822-3 0  9998
2 16262 082.4920 327.3261 0011215 204.0241 156.0466 15.07884294596197
Epoch (UTC): 26 March 2015 18:41:46
Eccentricity: 0.0011215
inclination: 82.4920°
perigee height: 535 km
apogee height: 550 km
right ascension of ascending node: 327.3261°
argument of perigee: 204.0241°
revolutions per day: 15.07884294
mean anomaly at epoch: 156.0466°
orbit number at epoch: 59619

The dashed part of the orbit path shows where the satellite is in the earth's shadow,  

DLR